period_start,C,m1,H,J0,J1,J2,J3,J4,J5,JA,JB,JC,JD,JJ,JK,JN,#
2016-02-10 00:03:09,0.08,3.69,0.00,17.08,21.22,25.13,14.90,47.79,1019.61,2055.05,2304.69,2302.11,2592.85,599.99,609.98,39.64,0000 0000 0000 0000 000000
2016-02-10 00:08:10,0.10,3.69,0.00,17.05,21.22,25.11,14.95,47.83,1019.86,2055.18,2303.65,2301.33,2591.94,600.20,610.39,39.69,0000 0000 0000 0000 000000
2016-02-10 00:13:12,0.10,3.69,0.00,17.03,21.19,25.08,14.98,47.88,1019.88,2055.39,2302.71,2300.66,2591.00,600.09,610.39,39.74,0000 0000 0000 0000 000000
2016-02-10 00:18:13,0.10,3.70,0.00,17.04,21.18,25.06,14.95,48.70,1020.00,2055.56,2301.47,2299.82,2590.04,599.93,610.12,39.79,0000 0000 0000 0000 000000
2016-02-10 00:23:14,0.10,3.71,0.00,17.03,21.16,25.02,14.92,48.38,1020.02,2055.74,2300.38,2298.99,2589.10,600.13,610.48,39.84,0000 0000 0000 0000 000000
2016-02-10 00:28:16,0.10,3.71,0.00,17.03,21.14,25.04,14.84,48.10,1020.02,2055.94,2299.32,2298.12,2588.24,599.60,609.96,39.89,0000 0000 0000 0000 000000
2016-02-10 00:33:17,0.09,3.72,0.00,17.03,21.13,25.04,14.95,48.23,1020.01,2055.97,2298.26,2297.39,2587.38,600.39,610.70,39.94,0000 0000 0000 0000 000000
2016-02-10 00:38:18,0.08,3.72,0.00,17.01,21.12,25.01,14.96,48.19,1020.01,2055.98,2297.20,2296.66,2586.49,599.99,610.39,39.99,0000 0000 0000 0000 000000
2016-02-10 00:43:19,0.07,3.73,0.00,16.99,21.10,24.99,14.88,48.03,1019.96,2055.99,2296.10,2295.91,2585.53,599.79,610.16,40.04,0000 0000 0000 0000 000000
2016-02-10 00:48:20,0.08,3.73,0.00,16.99,21.09,24.98,14.95,47.96,1019.90,2055.98,2295.05,2295.08,2584.66,600.27,610.72,40.09,0000 0000 0000 0000 000000
2016-02-10 00:53:22,0.09,3.73,0.00,16.98,21.08,24.97,14.86,48.01,1019.98,2055.98,2293.94,2294.20,2583.79,599.99,610.37,40.14,0000 0000 0000 0000 000000
2016-02-10 00:58:23,0.10,3.74,0.00,16.97,21.07,24.97,14.89,48.27,1020.00,2055.98,2292.71,2293.33,2582.80,599.94,610.36,40.20,0000 0000 0000 0000 000000
2016-02-10 01:03:24,0.08,3.74,0.00,16.94,21.05,24.97,14.89,47.94,1020.03,2055.99,2291.62,2292.53,2581.89,599.71,610.24,40.25,0000 0000 0000 0000 000000
2016-02-10 01:08:26,0.07,3.75,0.00,16.93,21.04,24.98,14.89,48.10,1020.03,2055.99,2290.53,2291.85,2581.00,599.61,610.23,40.30,0000 0000 0000 0000 000000
2016-02-10 01:13:27,0.08,3.75,0.00,16.93,21.03,24.94,14.83,48.05,1020.03,2055.99,2289.56,2291.05,2580.12,599.60,610.13,40.35,0000 0000 0000 0000 000000
2016-02-10 01:18:28,0.09,3.76,0.00,16.92,21.02,24.92,14.93,48.01,1020.03,2056.01,2288.55,2290.25,2579.28,599.59,610.15,40.40,0000 0000 0000 0000 000000
2016-02-10 01:23:30,0.09,3.76,0.00,16.91,21.01,24.87,14.93,48.02,1020.03,2056.01,2287.47,2289.50,2578.32,599.89,610.35,40.45,0000 0000 0000 0000 000000
2016-02-10 01:28:31,0.08,3.76,0.00,16.92,20.99,24.91,14.91,48.08,1020.04,2056.05,2286.46,2288.77,2577.53,599.86,610.46,40.50,0000 0000 0000 0000 000000
2016-02-10 01:33:32,0.08,3.77,0.00,16.92,20.99,24.89,15.04,47.94,1020.04,2056.04,2285.30,2287.91,2576.51,600.31,610.77,40.55,0000 0000 0000 0000 000000
2016-02-10 01:38:33,0.10,3.77,0.00,16.91,20.98,24.91,14.92,48.09,1020.06,2056.05,2284.03,2286.94,2575.51,600.04,610.75,40.60,0000 0000 0000 0000 000000
2016-02-10 01:43:34,0.11,3.78,0.00,16.89,20.97,24.89,14.84,48.14,1020.07,2056.03,2282.59,2285.87,2574.31,599.51,610.13,40.65,0000 0000 0000 0000 000000
2016-02-10 01:48:35,0.09,3.79,0.00,16.89,20.96,24.86,14.87,48.10,1020.10,2056.02,2281.24,2284.90,2573.13,599.85,610.56,40.70,0000 0000 0000 0000 000000
2016-02-10 01:53:37,0.09,3.79,0.00,16.90,20.95,24.81,14.92,47.88,1020.22,2056.04,2279.98,2283.99,2572.11,600.06,610.78,40.75,0000 0000 0000 0000 000000
2016-02-10 01:58:38,0.11,3.80,0.00,16.90,20.94,24.84,14.90,47.91,1020.30,2056.10,2278.76,2283.01,2571.02,599.89,610.78,40.80,0000 0000 0000 0000 000000
2016-02-10 02:03:39,0.10,3.80,0.00,16.91,20.94,24.83,15.01,47.87,1020.33,2056.17,2277.57,2282.05,2569.93,600.04,610.90,40.85,0000 0000 0000 0000 000000
2016-02-10 02:08:40,0.11,3.81,0.00,16.89,20.94,24.81,14.98,47.95,1020.41,2056.19,2276.24,2281.07,2568.80,600.23,611.09,40.90,0000 0000 0000 0000 000000
2016-02-10 02:13:41,0.10,3.81,0.00,16.88,20.94,24.81,14.95,47.99,1020.47,2056.17,2274.94,2280.13,2567.68,600.03,610.97,40.95,0000 0000 0000 0000 000000
2016-02-10 02:18:42,0.11,3.82,0.00,16.91,20.93,24.87,15.04,48.06,1020.42,2056.34,2273.73,2279.21,2566.68,600.17,611.14,41.00,0000 0000 0000 0000 000000
2016-02-10 02:23:44,0.09,3.82,0.00,16.90,20.92,24.84,14.96,48.26,1020.47,2056.27,2272.54,2278.27,2565.60,600.12,611.00,41.05,0000 0000 0000 0000 000000
2016-02-10 02:28:45,0.14,3.83,0.00,16.91,20.92,24.88,14.92,48.18,1020.49,2056.54,2271.29,2277.33,2564.55,600.05,610.94,41.11,0000 0000 0000 0000 000000
2016-02-10 02:33:46,0.10,3.84,0.00,16.92,20.92,24.87,15.01,48.02,1020.52,2056.56,2269.74,2276.27,2563.39,600.16,610.98,41.16,0000 0000 0000 0000 000000
2016-02-10 02:38:47,0.10,3.84,0.00,16.93,20.92,24.85,14.91,48.10,1020.52,2056.48,2268.43,2275.23,2562.20,599.78,610.60,41.21,0000 0000 0000 0000 000000
2016-02-10 02:43:49,0.10,3.85,0.00,16.94,20.91,24.86,14.90,48.09,1020.52,2056.52,2267.11,2274.20,2561.03,599.89,610.71,41.26,0000 0000 0000 0000 000000
2016-02-10 02:48:50,0.13,3.85,0.00,16.93,20.92,24.82,14.95,48.27,1020.52,2056.62,2265.80,2273.22,2559.95,600.22,611.05,41.31,0000 0000 0000 0000 000000
2016-02-10 02:53:51,0.09,3.86,0.00,16.94,20.90,24.80,14.90,48.52,1020.52,2056.65,2264.38,2272.19,2558.86,599.76,610.58,41.36,0000 0000 0000 0000 000000
2016-02-10 02:58:52,0.15,3.86,0.00,16.93,20.89,24.79,14.94,48.42,1020.52,2056.67,2262.83,2270.99,2557.58,599.89,610.77,41.41,0000 0000 0000 0000 000000
2016-02-10 03:03:53,0.12,3.87,0.00,16.91,20.89,24.80,15.04,48.43,1020.52,2056.69,2261.36,2269.81,2556.35,600.35,611.22,41.46,0000 0000 0000 0000 000000
2016-02-10 03:08:54,0.12,3.88,0.00,16.93,20.89,24.85,14.94,48.45,1020.52,2056.76,2259.81,2268.66,2555.07,599.83,610.67,41.51,0000 0000 0000 0000 000000
2016-02-10 03:13:55,0.13,3.88,0.00,16.93,20.89,24.80,14.99,48.27,1020.52,2056.84,2258.50,2267.61,2553.84,600.40,611.16,41.56,0000 0000 0000 0000 000000
2016-02-10 03:18:56,0.09,3.89,0.00,16.94,20.89,24.86,14.86,48.08,1020.52,2056.74,2257.16,2266.63,2552.71,599.84,610.80,41.61,0000 0000 0000 0000 000000
2016-02-10 03:23:58,0.14,3.90,0.00,16.96,20.89,24.81,14.94,48.07,1020.52,2056.86,2255.75,2265.58,2551.58,600.08,610.81,41.66,0000 0000 0000 0000 000000
2016-02-10 03:28:59,0.10,3.90,0.00,16.98,20.89,24.84,14.86,48.10,1020.53,2056.83,2254.33,2264.46,2550.27,599.86,610.61,41.71,0000 0000 0000 0000 000000
2016-02-10 03:34:00,0.13,3.91,0.00,17.00,20.89,24.84,15.02,48.12,1020.54,2056.86,2252.78,2263.35,2548.90,600.63,611.29,41.76,0000 0000 0000 0000 000000
2016-02-10 03:39:01,0.12,3.92,0.00,17.02,20.89,24.83,14.93,48.08,1020.53,2056.84,2251.14,2261.96,2547.52,600.36,611.02,41.81,0000 0000 0000 0000 000000
2016-02-10 03:44:03,0.15,3.92,0.00,17.00,20.89,24.77,14.90,48.40,1020.61,2056.84,2249.53,2260.69,2546.05,599.74,610.36,41.86,0000 0000 0000 0000 000000
2016-02-10 03:49:04,0.13,3.93,0.00,17.02,20.89,24.84,14.94,48.26,1020.62,2056.72,2247.87,2259.46,2544.54,600.12,610.76,41.91,0000 0000 0000 0000 000000
2016-02-10 03:54:05,0.11,3.94,0.00,17.01,20.89,24.87,14.88,48.27,1020.60,2056.76,2246.20,2258.20,2543.22,599.91,610.63,41.96,0000 0000 0000 0000 000000
2016-02-10 03:59:06,0.13,3.94,0.00,17.02,20.90,24.83,14.88,48.35,1020.56,2056.75,2244.68,2257.02,2541.85,599.60,610.33,42.01,0000 0000 0000 0000 000000
2016-02-10 04:04:08,0.12,3.95,0.00,17.04,20.89,24.83,14.90,48.45,1020.58,2056.68,2243.23,2255.87,2540.53,599.64,610.32,42.06,0000 0000 0000 0000 000000
2016-02-10 04:09:09,0.10,3.95,0.00,17.03,20.90,24.85,14.91,48.30,1020.60,2056.63,2241.78,2254.77,2539.38,600.14,610.82,42.12,0000 0000 0000 0000 000000
2016-02-10 04:14:10,0.11,3.96,0.00,17.05,20.90,24.84,14.98,48.42,1020.77,2056.45,2240.39,2253.64,2537.98,600.27,611.02,42.17,0000 0000 0000 0000 000000
2016-02-10 04:19:11,0.12,3.97,0.00,17.08,20.91,24.81,14.97,48.28,1021.00,2056.45,2238.89,2252.42,2536.57,600.24,611.15,42.22,0000 0000 0000 0000 000000
2016-02-10 04:24:12,0.12,3.97,0.00,17.09,20.92,24.89,14.86,48.24,1021.01,2056.34,2237.37,2251.15,2535.22,599.70,610.41,42.27,0000 0000 0000 0000 000000
2016-02-10 04:29:13,0.14,3.98,0.00,17.10,20.92,24.85,14.96,48.28,1021.01,2056.23,2235.68,2249.79,2533.70,599.65,610.36,42.32,0000 0000 0000 0000 000000
2016-02-10 04:34:15,0.13,3.99,0.00,17.11,20.94,24.86,14.95,48.38,1021.01,2056.13,2233.95,2248.55,2532.19,600.03,610.78,42.37,0000 0000 0000 0000 000000
2016-02-10 04:39:16,0.13,3.99,0.00,17.10,20.95,24.95,14.84,48.11,1021.01,2056.07,2232.28,2247.26,2530.69,599.97,610.76,42.42,0000 0000 0000 0000 000000
2016-02-10 04:44:17,0.12,4.00,0.00,17.11,20.97,24.92,14.87,48.02,1021.01,2056.04,2230.70,2245.94,2529.32,599.94,610.76,42.47,0000 0000 0000 0000 000000
2016-02-10 04:49:19,0.14,4.01,0.00,17.09,20.99,25.00,14.96,48.13,1021.01,2056.05,2229.09,2244.71,2527.90,599.90,610.80,42.52,0000 0000 0000 0000 000000
2016-02-10 04:54:20,0.14,4.01,0.00,17.09,20.99,24.95,14.92,48.31,1021.01,2056.04,2227.56,2243.48,2526.44,600.40,611.26,42.57,0000 0000 0000 0000 000000
2016-02-10 04:59:21,0.14,4.02,0.00,17.10,21.01,24.98,14.99,48.80,1021.01,2056.00,2225.87,2242.15,2524.91,600.14,610.98,42.62,0000 0000 0000 0000 000000
2016-02-10 05:04:22,0.13,4.03,0.00,17.12,21.02,24.98,14.91,48.81,1021.01,2056.01,2224.24,2240.81,2523.48,599.74,610.60,42.67,0000 0000 0000 0000 000000
2016-02-10 05:09:23,0.14,4.04,0.00,17.12,21.02,24.95,14.97,48.71,1021.04,2056.00,2222.63,2239.56,2521.96,599.94,610.74,42.72,0000 0000 0000 0000 000000
2016-02-10 05:14:24,0.11,4.04,0.00,17.12,21.02,25.01,15.03,48.66,1021.02,2056.00,2221.13,2238.58,2520.68,600.10,610.72,42.77,0000 0000 0000 0000 000000
2016-02-10 05:19:26,0.11,4.05,0.00,17.11,21.03,24.95,15.04,48.46,1021.03,2056.00,2219.84,2237.57,2519.58,600.47,611.24,42.82,0000 0000 0000 0000 000000
2016-02-10 05:24:27,0.12,4.05,0.00,17.12,21.04,24.98,14.86,48.27,1021.11,2056.00,2218.52,2236.49,2518.34,599.59,610.38,42.87,0000 0000 0000 0000 000000
2016-02-10 05:29:28,0.11,4.06,0.00,17.11,21.04,24.98,14.90,48.37,1021.36,2056.00,2217.06,2235.37,2517.01,599.98,610.93,42.92,0000 0000 0000 0000 000000
2016-02-10 05:34:30,0.13,4.07,0.00,17.09,21.04,25.00,14.94,48.29,1021.49,2056.00,2215.61,2234.21,2515.67,600.11,611.15,42.97,0000 0000 0000 0000 000000
2016-02-10 05:39:31,0.13,4.07,0.00,17.10,21.03,25.02,15.00,48.33,1021.50,2056.00,2213.95,2232.97,2514.33,600.12,611.20,43.02,0000 0000 0000 0000 000000
2016-02-10 05:44:32,0.14,4.08,0.00,17.10,21.02,24.97,15.02,48.13,1021.50,2056.00,2212.45,2231.79,2512.91,600.31,611.52,43.08,0000 0000 0000 0000 000000
2016-02-10 05:49:34,0.12,4.09,0.00,17.09,21.02,25.00,14.97,48.21,1021.52,2056.00,2210.99,2230.70,2511.70,600.27,611.27,43.13,0000 0000 0000 0000 000000
2016-02-10 05:54:35,0.12,4.09,0.00,17.07,21.02,24.97,14.94,48.08,1021.51,2056.00,2209.67,2229.63,2510.52,599.71,610.80,43.18,0000 0000 0000 0000 000000
2016-02-10 05:59:37,0.11,4.10,0.00,17.06,21.02,24.94,15.00,48.08,1021.52,2056.00,2208.31,2228.53,2509.37,600.03,611.21,43.23,0000 0000 0000 0000 000000
2016-02-10 06:04:38,0.11,4.10,0.00,17.06,21.00,24.93,14.99,48.33,1021.53,2056.00,2206.87,2227.58,2508.14,600.26,611.44,43.28,0000 0000 0000 0000 000000
2016-02-10 06:09:39,0.13,4.11,0.00,17.06,20.99,24.95,14.98,48.01,1021.54,2056.00,2205.51,2226.51,2506.85,600.29,611.40,43.33,0000 0000 0000 0000 000000
2016-02-10 06:14:40,0.11,4.12,0.00,17.04,20.99,24.95,14.93,48.05,1021.51,2056.00,2204.07,2225.40,2505.67,600.26,611.47,43.38,0000 0000 0000 0000 000000
2016-02-10 06:19:41,0.11,4.12,0.00,17.03,20.99,24.95,14.95,48.02,1021.54,2056.00,2202.72,2224.37,2504.53,600.12,611.36,43.43,0000 0000 0000 0000 000000
2016-02-10 06:24:43,0.11,4.13,0.00,17.04,20.97,24.91,14.96,48.25,1021.55,2056.00,2201.27,2223.31,2503.31,600.06,611.21,43.48,0000 0000 0000 0000 000000
2016-02-10 06:29:44,0.12,4.13,0.00,17.03,20.97,24.83,14.87,48.09,1021.57,2056.01,2199.75,2222.14,2501.96,599.87,611.21,43.53,0000 0000 0000 0000 000000
2016-02-10 06:34:46,0.12,4.14,0.00,17.02,20.95,24.88,14.92,48.12,1021.61,2056.01,2198.29,2220.97,2500.66,600.04,611.38,43.58,0000 0000 0000 0000 000000
2016-02-10 06:39:47,0.11,4.15,0.00,17.02,20.94,24.86,14.95,48.02,1021.74,2056.03,2196.97,2219.95,2499.47,599.96,611.29,43.63,0000 0000 0000 0000 000000
2016-02-10 06:44:48,0.13,4.15,0.00,17.01,20.94,24.85,14.94,47.97,1021.89,2056.02,2195.64,2218.85,2498.28,599.90,611.48,43.68,0000 0000 0000 0000 000000
2016-02-10 06:49:50,0.13,4.16,0.00,16.99,20.92,24.88,14.97,47.94,1021.94,2056.01,2194.09,2217.73,2496.90,600.26,611.73,43.73,0000 0000 0000 0000 000000
2016-02-10 06:54:51,0.14,4.17,0.00,16.98,20.92,24.78,14.90,48.38,1021.99,2056.01,2192.54,2216.54,2495.66,600.05,611.63,43.78,0000 0000 0000 0000 000000
2016-02-10 06:59:52,0.11,4.17,0.00,16.96,20.91,24.83,14.95,48.03,1021.99,2056.03,2191.12,2215.49,2494.58,600.00,611.78,43.83,0000 0000 0000 0000 000000
2016-02-10 07:04:54,0.13,4.18,0.00,16.96,20.89,24.87,14.99,48.12,1021.99,2056.08,2189.62,2214.35,2493.31,599.97,611.69,43.88,0000 0000 0000 0000 000000
2016-02-10 07:09:55,0.13,4.19,0.00,16.92,20.89,24.83,15.01,48.27,1021.99,2056.12,2188.05,2213.12,2491.90,600.24,611.97,43.94,0000 0000 0000 0000 000000
2016-02-10 07:14:57,0.14,4.19,0.00,16.91,20.88,24.81,15.06,48.02,1022.01,2056.18,2186.54,2211.91,2490.54,600.06,611.83,43.99,0000 0000 0000 0000 000000
2016-02-10 07:19:58,0.14,4.20,0.00,16.92,20.87,24.82,14.96,48.15,1022.06,2056.13,2184.89,2210.67,2489.07,599.94,611.69,44.04,0000 0000 0000 0000 000000
2016-02-10 07:25:00,0.14,4.21,0.00,16.92,20.86,24.83,14.98,47.89,1022.22,2056.14,2183.22,2209.41,2487.63,599.90,611.86,44.09,0000 0000 0000 0000 000000
2016-02-10 07:30:01,0.15,4.22,0.00,16.87,20.84,24.81,14.93,48.15,1022.34,2056.28,2181.43,2208.08,2486.17,599.96,611.97,44.14,0000 0000 0000 0000 000000
2016-02-10 07:35:02,0.17,4.22,0.00,16.87,20.83,24.78,14.97,47.94,1022.42,2056.37,2179.74,2206.73,2484.66,599.82,611.85,44.19,0000 0000 0000 0000 000000
2016-02-10 07:40:04,0.16,4.23,0.00,16.87,20.82,24.78,14.96,47.98,1022.43,2056.53,2178.01,2205.46,2483.22,600.19,612.28,44.24,0000 0000 0000 0000 000000
2016-02-10 07:45:05,0.17,4.24,0.00,16.87,20.81,24.77,15.00,48.29,1022.47,2056.79,2176.31,2204.14,2481.70,600.29,612.43,44.29,0000 0000 0000 0000 000000
2016-02-10 07:50:07,0.16,4.25,0.00,16.85,20.79,24.70,15.02,48.48,1022.48,2056.91,2174.70,2202.79,2480.24,599.92,612.09,44.34,0000 0000 0000 0000 000000
2016-02-10 07:55:08,0.16,4.26,0.00,16.83,20.78,24.74,14.93,48.17,1022.48,2056.96,2172.97,2201.53,2478.70,599.77,611.94,44.39,0000 0000 0000 0000 000000
2016-02-10 08:00:09,0.13,4.27,0.00,16.82,20.77,24.69,15.07,48.28,1022.48,2056.97,2171.25,2200.15,2477.14,600.42,612.62,44.44,0000 0000 0000 0000 000000
2016-02-10 08:05:10,0.16,4.27,0.00,16.82,20.75,24.69,14.89,48.17,1022.48,2056.95,2169.46,2198.74,2475.64,599.55,611.80,44.49,0000 0000 0000 0000 000000
2016-02-10 08:10:12,0.15,4.28,0.00,16.79,20.74,24.67,14.95,48.83,1022.48,2056.98,2167.72,2197.45,2474.12,599.96,612.26,44.54,0000 0000 0000 0000 000000
2016-02-10 08:15:13,0.16,4.29,0.00,16.78,20.72,24.65,14.94,48.46,1022.50,2056.98,2165.82,2196.06,2472.61,599.85,612.26,44.59,0000 0000 0000 0000 000000
2016-02-10 08:20:14,0.14,4.30,0.00,16.79,20.72,24.65,14.92,48.53,1022.52,2056.99,2164.12,2194.73,2471.15,599.82,612.16,44.64,0000 0000 0000 0000 000000
2016-02-10 08:25:15,0.15,4.30,0.00,16.79,20.70,24.65,14.95,48.63,1022.66,2056.99,2162.50,2193.49,2469.64,600.03,612.44,44.69,0000 0000 0000 0000 000000
2016-02-10 08:30:17,0.15,4.31,0.00,16.78,20.69,24.65,15.00,48.50,1022.72,2056.99,2160.70,2192.11,2468.08,599.97,612.45,44.74,0000 0000 0000 0000 000000
2016-02-10 08:35:18,0.16,4.32,0.00,16.77,20.68,24.63,14.93,48.59,1022.68,2056.99,2158.90,2190.73,2466.59,599.70,612.10,44.79,0000 0000 0000 0000 000000
2016-02-10 08:40:19,0.14,4.33,0.00,16.74,20.67,24.58,14.99,48.54,1022.83,2056.99,2157.17,2189.45,2465.09,599.90,612.54,44.84,0000 0000 0000 0000 000000
2016-02-10 08:45:21,0.13,4.34,0.00,16.74,20.67,24.63,15.05,48.63,1022.89,2056.99,2155.60,2188.24,2463.72,600.29,612.95,44.90,0000 0000 0000 0000 000000
2016-02-10 08:50:22,0.14,4.34,0.00,16.72,20.64,24.57,15.03,48.67,1022.95,2056.99,2153.92,2186.97,2462.31,600.10,612.77,44.95,0000 0000 0000 0000 000000
2016-02-10 08:55:23,0.15,4.35,0.00,16.71,20.64,24.61,15.03,48.59,1022.96,2056.99,2152.42,2185.71,2460.82,600.44,613.01,45.00,0000 0000 0000 0000 000000
2016-02-10 09:00:25,0.14,4.36,0.00,16.68,20.62,24.56,15.01,48.64,1022.96,2057.00,2150.71,2184.48,2459.37,599.94,612.73,45.05,0000 0000 0000 0000 000000
2016-02-10 09:05:26,0.15,4.37,0.00,16.67,20.62,24.53,14.96,48.74,1022.96,2057.02,2148.94,2183.13,2457.86,599.77,612.64,45.10,0000 0000 0000 0000 000000
2016-02-10 09:10:27,0.15,4.37,0.00,16.66,20.60,24.60,15.01,48.55,1023.00,2057.05,2147.32,2181.85,2456.47,600.22,613.00,45.15,0000 0000 0000 0000 000000
2016-02-10 09:15:29,0.15,4.38,0.00,16.65,20.59,24.53,14.96,48.48,1023.01,2057.05,2145.55,2180.58,2454.97,599.59,612.47,45.20,0000 0000 0000 0000 000000
2016-02-10 09:20:30,0.15,4.39,0.00,16.65,20.57,24.51,15.00,48.63,1023.02,2057.10,2143.86,2179.27,2453.57,600.00,612.93,45.25,0000 0000 0000 0000 000000
2016-02-10 09:25:32,0.14,4.40,0.00,16.64,20.57,24.50,14.93,48.72,1023.01,2057.13,2142.22,2177.98,2452.11,599.59,612.51,45.30,0000 0000 0000 0000 000000
2016-02-10 09:30:33,0.16,4.41,0.00,16.60,20.55,24.51,15.02,48.75,1023.05,2057.16,2140.61,2176.75,2450.65,599.86,613.01,45.35,0000 0000 0000 0000 000000
2016-02-10 09:35:34,0.17,4.41,0.00,16.59,20.54,24.50,15.04,48.77,1023.17,2057.38,2139.02,2175.53,2449.27,599.94,613.09,45.40,0000 0000 0000 0000 000000
2016-02-10 09:40:35,0.12,4.42,0.00,16.59,20.53,24.48,14.95,48.67,1023.30,2057.35,2137.33,2174.34,2447.76,599.78,612.98,45.45,0000 0000 0000 0000 000000
2016-02-10 09:45:36,0.19,4.43,0.00,16.60,20.52,24.52,14.99,48.75,1023.41,2057.67,2135.71,2173.06,2446.43,599.88,613.17,45.50,0000 0000 0000 0000 000000
2016-02-10 09:50:37,0.14,4.44,0.00,16.57,20.52,24.50,15.04,48.84,1023.44,2057.70,2134.17,2171.86,2445.00,600.01,613.30,45.55,0000 0000 0000 0000 000000
2016-02-10 09:55:39,0.17,4.45,0.00,16.54,20.49,24.49,14.97,48.86,1023.45,2057.87,2132.63,2170.67,2443.63,599.76,613.12,45.60,0000 0000 0000 0000 000000
2016-02-10 10:00:40,0.14,4.45,0.00,16.54,20.49,24.43,15.04,48.75,1023.45,2057.89,2130.88,2169.42,2442.22,600.12,613.59,45.65,0000 0000 0000 0000 000000
2016-02-10 10:05:41,0.12,4.46,0.00,16.55,20.48,24.38,14.99,48.74,1023.45,2057.97,2129.58,2168.29,2440.91,599.95,613.36,45.70,0000 0000 0000 0000 000000
2016-02-10 10:10:42,0.14,4.47,0.00,16.56,20.47,24.44,14.98,48.74,1023.45,2057.97,2127.99,2167.13,2439.63,600.14,613.55,45.75,0000 0000 0000 0000 000000
2016-02-10 10:15:43,0.12,4.48,0.00,16.54,20.47,24.45,15.04,48.89,1023.47,2057.96,2126.50,2166.00,2438.38,600.07,613.45,45.81,0000 0000 0000 0000 000000
2016-02-10 10:20:44,0.11,4.48,0.00,16.54,20.45,24.35,14.97,48.83,1023.46,2057.98,2125.20,2164.95,2437.18,599.69,613.20,45.86,0000 0000 0000 0000 000000
2016-02-10 10:25:45,0.16,4.49,0.00,16.52,20.44,24.36,15.02,48.73,1023.47,2057.97,2123.66,2163.77,2435.79,599.94,613.42,45.91,0000 0000 0000 0000 000000
2016-02-10 10:30:46,0.13,4.49,0.00,16.53,20.43,24.37,14.99,48.83,1023.49,2057.99,2122.12,2162.61,2434.46,599.70,613.16,45.96,0000 0000 0000 0000 000000
2016-02-10 10:35:48,0.14,4.50,0.00,16.53,20.42,24.37,15.04,48.81,1023.52,2057.98,2120.59,2161.37,2433.06,600.27,613.72,46.01,0000 0000 0000 0000 000000
2016-02-10 10:40:49,0.13,4.51,0.00,16.51,20.42,24.38,14.98,48.73,1023.53,2057.99,2118.97,2160.21,2431.78,599.91,613.48,46.06,0000 0000 0000 0000 000000
2016-02-10 10:45:50,0.13,4.52,0.00,16.50,20.40,24.36,15.02,48.78,1023.51,2057.99,2117.48,2159.07,2430.55,599.94,613.48,46.11,0000 0000 0000 0000 000000
2016-02-10 10:50:52,0.10,4.52,0.00,16.49,20.39,24.36,15.00,48.63,1023.58,2057.99,2116.21,2158.05,2429.42,600.03,613.53,46.16,0000 0000 0000 0000 000000
2016-02-10 10:55:53,0.12,4.53,0.00,16.48,20.39,24.34,15.06,48.75,1023.77,2057.99,2114.92,2157.02,2428.29,600.43,614.23,46.21,0000 0000 0000 0000 000000
2016-02-10 11:00:54,0.12,4.54,0.00,16.47,20.37,24.36,14.99,48.77,1023.85,2057.99,2113.47,2155.92,2427.05,600.01,613.85,46.26,0000 0000 0000 0000 000000
2016-02-10 11:05:56,0.11,4.54,0.00,16.47,20.37,24.33,15.00,48.77,1023.94,2057.99,2112.08,2154.90,2425.88,600.01,613.87,46.31,0000 0000 0000 0000 000000
2016-02-10 11:10:57,0.12,4.55,0.00,16.45,20.36,24.31,14.96,48.77,1023.94,2057.99,2110.86,2153.89,2424.71,599.96,613.82,46.36,0000 0000 0000 0000 000000
2016-02-10 11:15:58,0.14,4.55,0.00,16.44,20.34,24.30,15.04,48.95,1023.94,2058.00,2109.54,2152.72,2423.50,599.81,613.83,46.41,0000 0000 0000 0000 000000
2016-02-10 11:21:00,0.11,4.56,0.00,16.44,20.34,24.30,14.98,48.73,1024.01,2058.02,2108.20,2151.72,2422.28,600.10,614.04,46.46,0000 0000 0000 0000 000000
2016-02-10 11:26:01,0.15,4.57,0.00,16.44,20.33,24.28,15.02,48.79,1023.99,2058.01,2106.69,2150.56,2420.95,600.25,614.22,46.51,0000 0000 0000 0000 000000
2016-02-10 11:31:02,0.13,4.57,0.00,16.44,20.32,24.28,15.03,48.66,1024.06,2058.01,2105.20,2149.40,2419.65,599.88,613.80,46.56,0000 0000 0000 0000 000000
2016-02-10 11:36:03,0.14,4.58,0.00,16.42,20.32,24.25,14.94,48.57,1024.27,2058.01,2103.70,2148.21,2418.25,600.01,614.14,46.61,0000 0000 0000 0000 000000
2016-02-10 11:41:05,0.15,4.59,0.00,16.40,20.31,24.29,14.98,48.60,1024.23,2058.01,2102.11,2146.93,2416.83,600.00,614.23,46.66,0000 0000 0000 0000 000000
2016-02-10 11:46:06,0.17,4.60,0.00,16.39,20.29,24.23,14.98,48.73,1024.19,2058.03,2100.48,2145.63,2415.49,599.92,614.12,46.72,0000 0000 0000 0000 000000
2016-02-10 11:51:07,0.15,4.60,0.00,16.36,20.29,24.24,15.06,48.70,1024.34,2058.06,2098.82,2144.42,2413.97,599.99,614.35,46.77,0000 0000 0000 0000 000000
2016-02-10 11:56:08,0.14,4.61,0.00,16.36,20.29,24.25,15.07,48.61,1024.34,2058.05,2097.16,2143.07,2412.50,599.94,614.28,46.82,0000 0000 0000 0000 000000
2016-02-10 12:01:09,0.16,4.62,0.00,16.33,20.27,24.20,15.00,48.58,1024.29,2058.02,2095.48,2141.72,2410.99,599.69,614.03,46.87,0000 0000 0000 0000 000000
2016-02-10 12:06:10,0.16,4.63,0.00,16.30,20.27,24.21,15.05,48.64,1024.40,2058.03,2093.75,2140.43,2409.56,599.91,614.38,46.92,0000 0000 0000 0000 000000
2016-02-10 12:11:11,0.14,4.64,0.00,16.29,20.25,24.19,15.09,49.08,1024.42,2058.04,2092.05,2139.10,2408.05,600.21,614.71,46.97,0000 0000 0000 0000 000000
2016-02-10 12:16:13,0.17,4.64,0.00,16.28,20.24,24.16,15.00,48.98,1024.43,2058.10,2090.42,2137.81,2406.58,600.00,614.63,47.02,0000 0000 0000 0000 000000
2016-02-10 12:21:14,0.16,4.65,0.00,16.27,20.23,24.18,15.05,48.77,1024.43,2058.17,2088.80,2136.55,2405.13,600.01,614.51,47.07,0000 0000 0000 0000 000000
2016-02-10 12:26:15,0.17,4.66,0.00,16.25,20.22,24.15,15.03,48.62,1024.43,2058.40,2087.13,2135.34,2403.70,600.08,614.63,47.12,0000 0000 0000 0000 000000
2016-02-10 12:31:17,0.15,4.67,0.00,16.22,20.22,24.13,15.11,48.65,1024.43,2058.41,2085.49,2133.92,2402.27,600.30,615.02,47.17,0000 0000 0000 0000 000000
2016-02-10 12:36:18,0.18,4.68,0.00,16.25,20.20,24.15,14.99,48.56,1024.43,2058.59,2083.73,2132.62,2400.73,599.77,614.34,47.22,0000 0000 0000 0000 000000
2016-02-10 12:41:19,0.17,4.69,0.00,16.26,20.19,24.12,15.01,48.63,1024.43,2058.73,2082.05,2131.33,2399.33,600.11,614.67,47.27,0000 0000 0000 0000 000000
2016-02-10 12:46:21,0.16,4.70,0.00,16.22,20.19,24.09,15.01,48.53,1024.44,2058.75,2080.35,2129.94,2397.75,599.76,614.38,47.32,0000 0000 0000 0000 000000
2016-02-10 12:51:22,0.18,4.70,0.00,16.17,20.17,24.12,14.98,48.70,1024.48,2058.87,2078.61,2128.62,2396.28,599.89,614.82,47.37,0000 0000 0000 0000 000000
2016-02-10 12:56:23,0.16,4.71,0.00,16.17,20.17,24.10,15.03,48.63,1024.48,2058.96,2076.94,2127.45,2394.78,599.96,614.81,47.42,0000 0000 0000 0000 000000